| time (UTC) | temp F | wind direction | speed MPH | gust MPH | rain 1hr in | rain 24hr in | rain mn in | humidity % | barometer mb |
| 20260507051042 | 64 | 319 | 5.0 | 10.0 | 0.00 | 0.00 | 0.00 | 45 | 1011.0 |
| 20260507050542 | 64 | 326 | 5.0 | 10.0 | 0.00 | 0.00 | 0.00 | 45 | 1011.1 |
| 20260507050043 | 65 | 303 | 3.0 | 7.0 | 0.00 | 0.00 | 0.00 | 45 | 1011.1 |
| 20260507045542 | 65 | 317 | 3.0 | 7.0 | 0.00 | 0.00 | 0.00 | 44 | 1011.1 |
| 20260507045041 | 65 | 334 | 3.0 | 7.0 | 0.00 | 0.00 | 0.00 | 43 | 1011.1 |
| 20260507044547 | 66 | 326 | 2.0 | 9.0 | 0.00 | 0.00 | 0.00 | 43 | 1011.1 |
| 20260507044043 | 66 | 302 | 3.0 | 10.0 | 0.00 | 0.00 | 0.00 | 42 | 1011.1 |
| 20260507043540 | 67 | 299 | 2.0 | 11.0 | 0.00 | 0.00 | 0.00 | 42 | 1011.0 |
| 20260507043042 | 67 | 307 | 3.0 | 11.0 | 0.00 | 0.00 | 0.00 | 41 | 1010.9 |
| 20260507042541 | 68 | 317 | 3.0 | 12.0 | 0.00 | 0.00 | 0.00 | 41 | 1010.8 |
| 20260507042039 | 68 | 311 | 4.0 | 13.0 | 0.00 | 0.00 | 0.00 | 40 | 1010.7 |
| 20260507041538 | 68 | 12 | 6.0 | 14.0 | 0.00 | 0.00 | 0.00 | 40 | 1010.6 |
| 20260507041037 | 69 | 354 | 4.0 | 14.0 | 0.00 | 0.00 | 0.00 | 39 | 1010.5 |
| 20260507040538 | 69 | 320 | 4.0 | 14.0 | 0.00 | 0.00 | 0.00 | 39 | 1010.3 |
| 20260507040038 | 70 | 10 | 4.0 | 15.0 | 0.00 | 0.00 | 0.00 | 38 | 1010.2 |
| 20260507035537 | 70 | 247 | 7.0 | 15.0 | 0.00 | 0.00 | 0.00 | 37 | 1010.1 |
| 20260507035037 | 71 | 276 | 6.0 | 13.0 | 0.00 | 0.00 | 0.00 | 36 | 1009.9 |
| 20260507034536 | 71 | 300 | 6.0 | 12.0 | 0.00 | 0.00 | 0.00 | 36 | 1009.9 |
| 20260507034036 | 71 | 345 | 5.0 | 14.0 | 0.00 | 0.00 | 0.00 | 35 | 1009.9 |
| 20260507033539 | 72 | 300 | 3.0 | 14.0 | 0.00 | 0.00 | 0.00 | 36 | 1009.9 |
| 20260507033036 | 72 | 309 | 4.0 | 14.0 | 0.00 | 0.00 | 0.00 | 35 | 1009.8 |
| 20260507032536 | 72 | 312 | 4.0 | 13.0 | 0.00 | 0.00 | 0.00 | 34 | 1009.9 |
| 20260507032034 | 72 | 228 | 2.0 | 10.0 | 0.00 | 0.00 | 0.00 | 34 | 1009.8 |
| 20260507031534 | 73 | 291 | 4.0 | 10.0 | 0.00 | 0.00 | 0.00 | 33 | 1009.7 |
| 20260507031039 | 73 | 308 | 3.0 | 10.0 | 0.00 | 0.00 | 0.00 | 33 | 1009.7 |
| 20260507030534 | 73 | 311 | 3.0 | 9.0 | 0.00 | 0.00 | 0.00 | 33 | 1009.6 |
| 20260507030040 | 73 | 328 | 3.0 | 8.0 | 0.00 | 0.00 | 0.00 | 33 | 1009.6 |
| 20260507025535 | 74 | 309 | 3.0 | 9.0 | 0.00 | 0.00 | 0.00 | 32 | 1009.6 |
| 20260507025035 | 74 | 317 | 3.0 | 8.0 | 0.00 | 0.00 | 0.00 | 32 | 1009.6 |
| 20260507024535 | 74 | 310 | 2.0 | 9.0 | 0.00 | 0.00 | 0.00 | 32 | 1009.6 |
| 20260507024035 | 74 | 307 | 2.0 | 9.0 | 0.00 | 0.00 | 0.00 | 32 | 1009.6 |
| 20260507023537 | 74 | 295 | 3.0 | 8.0 | 0.00 | 0.00 | 0.00 | 32 | 1009.6 |
| 20260507023034 | 74 | 302 | 3.0 | 9.0 | 0.00 | 0.00 | 0.00 | 32 | 1009.5 |
| 20260507022533 | 74 | 326 | 4.0 | 9.0 | 0.00 | 0.00 | 0.00 | 31 | 1009.5 |
| 20260507022032 | 74 | 276 | 5.0 | 8.0 | 0.00 | 0.00 | 0.00 | 31 | 1009.6 |
| 20260507021532 | 74 | 322 | 3.0 | 10.0 | 0.00 | 0.00 | 0.00 | 31 | 1009.4 |
| 20260507021032 | 74 | 3 | 4.0 | 10.0 | 0.00 | 0.00 | 0.00 | 31 | 1009.5 |
| 20260507020532 | 74 | 326 | 3.0 | 8.0 | 0.00 | 0.00 | 0.00 | 32 | 1009.4 |
| 20260507020033 | 74 | 322 | 4.0 | 10.0 | 0.00 | 0.00 | 0.00 | 30 | 1009.6 |
| 20260507015532 | 75 | 16 | 3.0 | 7.0 | 0.00 | 0.00 | 0.00 | 30 | 1009.4 |
| 20260507015032 | 75 | 313 | 3.0 | 7.0 | 0.00 | 0.00 | 0.00 | 31 | 1009.4 |
| 20260507014535 | 75 | 280 | 2.0 | 6.0 | 0.00 | 0.00 | 0.00 | 31 | 1009.4 |
| 20260507014032 | 75 | 299 | 3.0 | 9.0 | 0.00 | 0.00 | 0.00 | 30 | 1009.2 |
| 20260507013531 | 75 | 286 | 1.0 | 9.0 | 0.00 | 0.00 | 0.00 | 31 | 1009.3 |
| 20260507013032 | 75 | 299 | 2.0 | 11.0 | 0.00 | 0.00 | 0.00 | 30 | 1009.2 |
| 20260507012531 | 75 | 312 | 5.0 | 11.0 | 0.00 | 0.00 | 0.00 | 30 | 1009.2 |
| 20260507012034 | 76 | 341 | 4.0 | 10.0 | 0.00 | 0.00 | 0.00 | 30 | 1009.2 |
| 20260507011532 | 76 | 328 | 5.0 | 11.0 | 0.00 | 0.00 | 0.00 | 31 | 1009.2 |
| 20260507011030 | 76 | 324 | 3.0 | 7.0 | 0.00 | 0.00 | 0.00 | 32 | 1009.2 |
| 20260507010531 | 76 | 324 | 3.0 | 8.0 | 0.00 | 0.00 | 0.00 | 32 | 1009.2 |
| 20260507010029 | 76 | 264 | 2.0 | 8.0 | 0.00 | 0.00 | 0.00 | 31 | 1009.2 |
| 20260507005530 | 76 | 319 | 2.0 | 8.0 | 0.00 | 0.00 | 0.00 | 31 | 1009.3 |
| 20260507005029 | 76 | 307 | 2.0 | 7.0 | 0.00 | 0.00 | 0.00 | 32 | 1009.2 |
| 20260507004528 | 77 | 316 | 3.0 | 6.0 | 0.00 | 0.00 | 0.00 | 31 | 1009.2 |
| 20260507004030 | 77 | 328 | 3.0 | 9.0 | 0.00 | 0.00 | 0.00 | 31 | 1009.2 |
| 20260507003527 | 77 | 321 | 3.0 | 9.0 | 0.00 | 0.00 | 0.00 | 31 | 1009.2 |
| 20260507003028 | 77 | 264 | 4.0 | 9.0 | 0.00 | 0.00 | 0.00 | 31 | 1009.1 |
| 20260507002532 | 77 | 232 | 3.0 | 11.0 | 0.00 | 0.00 | 0.00 | 32 | 1009.1 |
| 20260507002028 | 78 | 305 | 3.0 | 11.0 | 0.00 | 0.00 | 0.00 | 32 | 1009.0 |
| 20260507001527 | 78 | 260 | 3.0 | 8.0 | 0.00 | 0.00 | 0.00 | 32 | 1008.9 |
| 20260507001027 | 78 | 323 | 2.0 | 9.0 | 0.00 | 0.00 | 0.00 | 32 | 1008.8 |
| 20260507000527 | 79 | 305 | 2.0 | 9.0 | 0.00 | 0.00 | 0.00 | 32 | 1008.8 |
| 20260507000028 | 79 | 282 | 2.0 | 7.0 | 0.00 | 0.00 | 0.00 | 31 | 1008.8 |
| 20260506235527 | 79 | 1 | 3.0 | 9.0 | 0.00 | 0.00 | 0.00 | 31 | 1008.8 |
| 20260506235026 | 80 | 308 | 3.0 | 14.0 | 0.00 | 0.00 | 0.00 | 31 | 1008.8 |
| 20260506234526 | 80 | 264 | 5.0 | 11.0 | 0.00 | 0.00 | 0.00 | 29 | 1008.8 |
| 20260506234026 | 81 | 274 | 5.0 | 9.0 | 0.00 | 0.00 | 0.00 | 30 | 1008.7 |
| 20260506233525 | 81 | 3 | 3.0 | 9.0 | 0.00 | 0.00 | 0.00 | 30 | 1008.6 |
| 20260506233026 | 81 | 5 | 2.0 | 11.0 | 0.00 | 0.00 | 0.00 | 30 | 1008.6 |
| 20260506232525 | 81 | 251 | 4.0 | 10.0 | 0.00 | 0.00 | 0.00 | 29 | 1008.6 |
| 20260506232025 | 82 | 292 | 4.0 | 10.0 | 0.00 | 0.00 | 0.00 | 29 | 1008.6 |
| 20260506231526 | 82 | 288 | 5.0 | 10.0 | 0.00 | 0.00 | 0.00 | 28 | 1008.6 |
| 20260506231028 | 83 | 264 | 4.0 | 10.0 | 0.00 | 0.00 | 0.00 | 29 | 1008.5 |
| 20260506230524 | 83 | 291 | 4.0 | 12.0 | 0.00 | 0.00 | 0.00 | 29 | 1008.5 |
| 20260506230025 | 84 | 254 | 4.0 | 12.0 | 0.00 | 0.00 | 0.00 | 28 | 1008.6 |
| 20260506225524 | 85 | 305 | 5.0 | 11.0 | 0.00 | 0.00 | 0.00 | 27 | 1008.6 |
| 20260506225024 | 86 | 341 | 4.0 | 11.0 | 0.00 | 0.00 | 0.00 | 27 | 1008.6 |
| 20260506224524 | 86 | 282 | 4.0 | 11.0 | 0.00 | 0.00 | 0.00 | 27 | 1008.6 |
| 20260506224025 | 86 | 320 | 5.0 | 13.0 | 0.00 | 0.00 | 0.00 | 27 | 1008.6 |
| 20260506223523 | 87 | 311 | 6.0 | 13.0 | 0.00 | 0.00 | 0.00 | 26 | 1008.5 |
| 20260506223023 | 87 | 262 | 4.0 | 15.0 | 0.00 | 0.00 | 0.00 | 27 | 1008.6 |
| 20260506222523 | 87 | 240 | 6.0 | 15.0 | 0.00 | 0.00 | 0.00 | 26 | 1008.6 |
| 20260506222023 | 87 | 258 | 6.0 | 14.0 | 0.00 | 0.00 | 0.00 | 26 | 1008.6 |
| 20260506221524 | 88 | 268 | 4.0 | 11.0 | 0.00 | 0.00 | 0.00 | 26 | 1008.4 |
| 20260506221023 | 88 | 257 | 5.0 | 16.0 | 0.00 | 0.00 | 0.00 | 26 | 1008.5 |
| 20260506220522 | 88 | 353 | 7.0 | 16.0 | 0.00 | 0.00 | 0.00 | 24 | 1008.5 |
| 20260506220029 | 88 | 292 | 5.0 | 14.0 | 0.00 | 0.00 | 0.00 | 23 | 1008.5 |
| 20260506215522 | 89 | 286 | 7.0 | 11.0 | 0.00 | 0.00 | 0.00 | 24 | 1008.5 |
| 20260506215022 | 89 | 289 | 5.0 | 12.0 | 0.00 | 0.00 | 0.00 | 23 | 1008.5 |
| 20260506214523 | 89 | 236 | 5.0 | 13.0 | 0.00 | 0.00 | 0.00 | 25 | 1008.5 |
| 20260506214021 | 89 | 234 | 6.0 | 13.0 | 0.00 | 0.00 | 0.00 | 25 | 1008.3 |
| 20260506213521 | 89 | 272 | 3.0 | 13.0 | 0.00 | 0.00 | 0.00 | 22 | 1008.4 |
| 20260506213020 | 90 | 324 | 5.0 | 15.0 | 0.00 | 0.00 | 0.00 | 22 | 1008.4 |
| 20260506212519 | 90 | 278 | 7.0 | 15.0 | 0.00 | 0.00 | 0.00 | 23 | 1008.4 |
| 20260506212019 | 90 | 301 | 4.0 | 12.0 | 0.00 | 0.00 | 0.00 | 24 | 1008.4 |
| 20260506211518 | 89 | 266 | 4.0 | 12.0 | 0.00 | 0.00 | 0.00 | 23 | 1008.5 |
| 20260506211018 | 89 | 320 | 5.0 | 12.0 | 0.00 | 0.00 | 0.00 | 21 | 1008.5 |
| 20260506210520 | 89 | 297 | 5.0 | 15.0 | 0.00 | 0.00 | 0.00 | 22 | 1008.5 |
| 20260506210019 | 88 | 182 | 5.0 | 15.0 | 0.00 | 0.00 | 0.00 | 23 | 1008.5 |
| 20260506205516 | 88 | 303 | 3.0 | 11.0 | 0.00 | 0.00 | 0.00 | 24 | 1008.4 |
| 20260506205018 | 89 | 254 | 4.0 | 12.0 | 0.00 | 0.00 | 0.00 | 23 | 1008.5 |
| 20260506204521 | 89 | 318 | 5.0 | 12.0 | 0.00 | 0.00 | 0.00 | 22 | 1008.5 |
| 20260506204014 | 90 | 337 | 6.0 | 12.0 | 0.00 | 0.00 | 0.00 | 23 | 1008.5 |
| 20260506203513 | 90 | 328 | 5.0 | 13.0 | 0.00 | 0.00 | 0.00 | 22 | 1008.5 |
| 20260506203014 | 90 | 299 | 5.0 | 11.0 | 0.00 | 0.00 | 0.00 | 23 | 1008.6 |
| 20260506202514 | 90 | 256 | 3.0 | 9.0 | 0.00 | 0.00 | 0.00 | 26 | 1008.6 |
| 20260506202013 | 91 | 328 | 5.0 | 9.0 | 0.00 | 0.00 | 0.00 | 23 | 1008.6 |
| 20260506201513 | 90 | 254 | 3.0 | 11.0 | 0.00 | 0.00 | 0.00 | 26 | 1008.6 |
| 20260506201014 | 90 | 226 | 5.0 | 11.0 | 0.00 | 0.00 | 0.00 | 23 | 1008.6 |
| 20260506200511 | 91 | 314 | 3.0 | 8.0 | 0.00 | 0.00 | 0.00 | 25 | 1008.6 |
| 20260506200019 | 91 | 309 | 2.0 | 8.0 | 0.00 | 0.00 | 0.00 | 23 | 1008.6 |
| 20260506195511 | 90 | 212 | 2.0 | 9.0 | 0.00 | 0.00 | 0.00 | 26 | 1008.6 |
| 20260506195013 | 90 | 272 | 2.0 | 9.0 | 0.00 | 0.00 | 0.00 | 25 | 1008.7 |
| 20260506194511 | 89 | 315 | 3.0 | 10.0 | 0.00 | 0.00 | 0.00 | 27 | 1008.8 |
| 20260506194017 | 89 | 247 | 3.0 | 10.0 | 0.00 | 0.00 | 0.00 | 24 | 1008.8 |
| 20260506193509 | 89 | 39 | 4.0 | 10.0 | 0.00 | 0.00 | 0.00 | 25 | 1008.8 |
| 20260506193013 | 89 | 4 | 5.0 | 10.0 | 0.00 | 0.00 | 0.00 | 23 | 1008.9 |
| 20260506192509 | 90 | 266 | 5.0 | 9.0 | 0.00 | 0.00 | 0.00 | 21 | 1008.9 |
| 20260506192009 | 91 | 307 | 3.0 | 8.0 | 0.00 | 0.00 | 0.00 | 24 | 1008.9 |
| 20260506191510 | 91 | 282 | 3.0 | 7.0 | 0.00 | 0.00 | 0.00 | 25 | 1009.0 |
| 20260506191007 | 90 | 243 | 2.0 | 8.0 | 0.00 | 0.00 | 0.00 | 24 | 1009.0 |
| 20260506190506 | 90 | 241 | 2.0 | 8.0 | 0.00 | 0.00 | 0.00 | 23 | 1009.0 |
| 20260506190004 | 89 | 216 | 2.0 | 6.0 | 0.00 | 0.00 | 0.00 | 25 | 1009.0 |
| 20260506185502 | 89 | 221 | 1.0 | 6.0 | 0.00 | 0.00 | 0.00 | 24 | 1009.0 |
| 20260506185002 | 88 | 220 | 2.0 | 13.0 | 0.00 | 0.00 | 0.00 | 25 | 1009.1 |
| 20260506184502 | 88 | 340 | 8.0 | 13.0 | 0.00 | 0.00 | 0.00 | 24 | 1009.1 |
| 20260506184002 | 88 | 224 | 3.0 | 11.0 | 0.00 | 0.00 | 0.00 | 25 | 1009.2 |
| 20260506183600 | 88 | 253 | 3.0 | 11.0 | 0.00 | 0.00 | 0.00 | 26 | 1009.3 |
| 20260506183100 | 87 | 224 | 4.0 | 12.0 | 0.00 | 0.00 | 0.00 | 25 | 1009.2 |
| 20260506182556 | 87 | 311 | 3.0 | 12.0 | 0.00 | 0.00 | 0.00 | 27 | 1009.2 |
| 20260506182056 | 86 | 292 | 3.0 | 9.0 | 0.00 | 0.00 | 0.00 | 28 | 1009.3 |
| 20260506181555 | 86 | 313 | 4.0 | 9.0 | 0.00 | 0.00 | 0.00 | 28 | 1009.3 |
| 20260506181053 | 85 | 264 | 2.0 | 10.0 | 0.00 | 0.00 | 0.00 | 28 | 1009.3 |
| 20260506180552 | 85 | 314 | 5.0 | 10.0 | 0.00 | 0.00 | 0.00 | 27 | 1009.4 |
| 20260506180051 | 84 | 285 | 3.0 | 11.0 | 0.00 | 0.00 | 0.00 | 30 | 1009.4 |
| 20260506175550 | 84 | 227 | 2.0 | 8.0 | 0.00 | 0.00 | 0.00 | 30 | 1009.4 |
| 20260506175049 | 83 | 266 | 3.0 | 9.0 | 0.00 | 0.00 | 0.00 | 30 | 1009.4 |
| 20260506174546 | 82 | 314 | 5.0 | 11.0 | 0.00 | 0.00 | 0.00 | 29 | 1009.4 |
| 20260506174045 | 82 | 220 | 3.0 | 9.0 | 0.00 | 0.00 | 0.00 | 30 | 1009.5 |
| 20260506173543 | 81 | 260 | 4.0 | 9.0 | 0.00 | 0.00 | 0.00 | 30 | 1009.5 |
| 20260506173056 | 81 | 353 | 4.0 | 9.0 | 0.00 | 0.00 | 0.00 | 30 | 1009.6 |
| 20260506172541 | 80 | 310 | 4.0 | 9.0 | 0.00 | 0.00 | 0.00 | 31 | 1009.6 |
| 20260506172039 | 80 | 293 | 4.0 | 9.0 | 0.00 | 0.00 | 0.00 | 32 | 1009.6 |
| 20260506171550 | 80 | 279 | 3.0 | 10.0 | 0.00 | 0.00 | 0.00 | 32 | 1009.6 |
| 20260506171037 | 79 | 309 | 5.0 | 10.0 | 0.00 | 0.00 | 0.00 | 31 | 1009.6 |
| 20260506170537 | 79 | 241 | 3.0 | 13.0 | 0.00 | 0.00 | 0.00 | 33 | 1009.7 |
| 20260506170034 | 78 | 268 | 4.0 | 13.0 | 0.00 | 0.00 | 0.00 | 34 | 1009.7 |
| 20260506165538 | 78 | 319 | 5.0 | 10.0 | 0.00 | 0.00 | 0.00 | 35 | 1009.8 |
| 20260506165031 | 77 | 46 | 4.0 | 10.0 | 0.00 | 0.00 | 0.00 | 35 | 1009.7 |
| 20260506164530 | 77 | 264 | 4.0 | 13.0 | 0.00 | 0.00 | 0.00 | 35 | 1009.7 |
| 20260506164030 | 77 | 293 | 5.0 | 12.0 | 0.00 | 0.00 | 0.00 | 36 | 1009.8 |
| 20260506163532 | 77 | 308 | 4.0 | 12.0 | 0.00 | 0.00 | 0.00 | 35 | 1009.8 |
| 20260506163039 | 77 | 353 | 4.0 | 14.0 | 0.00 | 0.00 | 0.00 | 35 | 1009.9 |
| 20260506162530 | 76 | 280 | 5.0 | 16.0 | 0.00 | 0.00 | 0.00 | 35 | 1009.9 |
| 20260506162129 | 76 | 288 | 6.0 | 14.0 | 0.00 | 0.00 | 0.00 | 35 | 1010.0 |
| 20260506161530 | 75 | 315 | 8.0 | 14.0 | 0.00 | 0.00 | 0.00 | 36 | 1010.0 |
| 20260506161032 | 75 | 355 | 4.0 | 16.0 | 0.00 | 0.00 | 0.00 | 37 | 1010.2 |
| 20260506160532 | 75 | 307 | 8.0 | 16.0 | 0.00 | 0.00 | 0.00 | 35 | 1010.3 |
| 20260506160030 | 76 | 296 | 7.0 | 16.0 | 0.00 | 0.00 | 0.00 | 36 | 1010.3 |
| 20260506155527 | 76 | 223 | 6.0 | 11.0 | 0.00 | 0.00 | 0.00 | 36 | 1010.3 |
| 20260506155028 | 77 | 267 | 6.0 | 12.0 | 0.00 | 0.00 | 0.00 | 35 | 1010.4 |
| 20260506154536 | 77 | 270 | 4.0 | 10.0 | 0.00 | 0.00 | 0.00 | 36 | 1010.3 |
| 20260506154029 | 76 | 305 | 5.0 | 9.0 | 0.00 | 0.00 | 0.00 | 36 | 1010.4 |
| 20260506153525 | 76 | 336 | 2.0 | 11.0 | 0.00 | 0.00 | 0.00 | 38 | 1010.4 |
| 20260506153023 | 76 | 297 | 2.0 | 11.0 | 0.00 | 0.00 | 0.00 | 37 | 1010.4 |
| 20260506152525 | 75 | 287 | 3.0 | 8.0 | 0.00 | 0.00 | 0.00 | 39 | 1010.5 |
| 20260506152020 | 75 | 331 | 2.0 | 6.0 | 0.00 | 0.00 | 0.00 | 39 | 1010.5 |
| 20260506151519 | 74 | 322 | 2.0 | 8.0 | 0.00 | 0.00 | 0.00 | 39 | 1010.6 |
| 20260506151021 | 74 | 280 | 4.0 | 8.0 | 0.00 | 0.00 | 0.00 | 40 | 1010.6 |
| 20260506150516 | 73 | 303 | 3.0 | 11.0 | 0.00 | 0.00 | 0.00 | 40 | 1010.6 |
| 20260506150015 | 73 | 353 | 4.0 | 11.0 | 0.00 | 0.00 | 0.00 | 40 | 1010.5 |
| 20260506145514 | 72 | 306 | 3.0 | 9.0 | 0.00 | 0.00 | 0.00 | 41 | 1010.5 |
| 20260506145011 | 72 | 343 | 5.0 | 10.0 | 0.00 | 0.00 | 0.00 | 42 | 1010.5 |
| 20260506144510 | 71 | 326 | 3.0 | 10.0 | 0.00 | 0.00 | 0.00 | 43 | 1010.6 |
| 20260506144010 | 71 | 301 | 3.0 | 11.0 | 0.00 | 0.00 | 0.00 | 42 | 1010.6 |
| 20260506143511 | 70 | 333 | 3.0 | 8.0 | 0.00 | 0.00 | 0.00 | 43 | 1010.6 |
| 20260506143014 | 69 | 302 | 3.0 | 8.0 | 0.00 | 0.00 | 0.00 | 44 | 1010.5 |
| 20260506142506 | 69 | 247 | 3.0 | 10.0 | 0.00 | 0.00 | 0.00 | 45 | 1010.5 |
| 20260506142003 | 68 | 307 | 3.0 | 11.0 | 0.00 | 0.00 | 0.00 | 45 | 1010.4 |
| 20260506141502 | 67 | 288 | 4.0 | 14.0 | 0.00 | 0.00 | 0.00 | 46 | 1010.5 |
| 20260506141102 | 67 | 308 | 6.0 | 14.0 | 0.00 | 0.00 | 0.00 | 47 | 1010.5 |
| 20260506141003 | 67 | 352 | 4.0 | 14.0 | 0.00 | 0.00 | 0.00 | 47 | 1010.4 |
| 20260506140601 | 66 | 320 | 6.0 | 11.0 | 0.00 | 0.00 | 0.00 | 47 | 1010.4 |
| 20260506140103 | 66 | 336 | 6.0 | 11.0 | 0.00 | 0.00 | 0.00 | 48 | 1010.4 |
| 20260506135557 | 66 | 320 | 5.0 | 13.0 | 0.00 | 0.00 | 0.00 | 48 | 1010.3 |
| 20260506135057 | 66 | 306 | 4.0 | 14.0 | 0.00 | 0.00 | 0.00 | 48 | 1010.2 |
| 20260506134557 | 65 | 324 | 7.0 | 14.0 | 0.00 | 0.00 | 0.00 | 49 | 1010.2 |
| 20260506134056 | 65 | 338 | 6.0 | 13.0 | 0.00 | 0.00 | 0.00 | 49 | 1010.2 |
| 20260506133554 | 65 | 317 | 6.0 | 12.0 | 0.00 | 0.00 | 0.00 | 50 | 1010.2 |
| 20260506133058 | 64 | 311 | 5.0 | 12.0 | 0.00 | 0.00 | 0.00 | 50 | 1010.2 |
| 20260506132552 | 64 | 282 | 4.0 | 14.0 | 0.00 | 0.00 | 0.00 | 51 | 1010.1 |
| 20260506132054 | 64 | 325 | 4.0 | 10.0 | 0.00 | 0.00 | 0.00 | 52 | 1010.1 |
| 20260506131553 | 64 | 349 | 2.0 | 10.0 | 0.00 | 0.00 | 0.00 | 52 | 1010.1 |
| 20260506131052 | 63 | 295 | 1.0 | 8.0 | 0.00 | 0.00 | 0.00 | 52 | 1010.1 |
| 20260506130551 | 63 | 317 | 2.0 | 8.0 | 0.00 | 0.00 | 0.00 | 52 | 1010.0 |
| 20260506130053 | 63 | 340 | 3.0 | 9.0 | 0.00 | 0.00 | 0.00 | 51 | 1009.9 |
| 20260506125549 | 63 | 319 | 4.0 | 7.0 | 0.00 | 0.00 | 0.00 | 51 | 1009.9 |
| 20260506125049 | 63 | 326 | 2.0 | 5.0 | 0.00 | 0.00 | 0.00 | 51 | 1009.8 |
| 20260506124549 | 63 | 311 | 1.0 | 4.0 | 0.00 | 0.00 | 0.00 | 50 | 1009.8 |
| 20260506124048 | 63 | 302 | 2.0 | 9.0 | 0.00 | 0.00 | 0.00 | 49 | 1009.8 |
| 20260506123548 | 63 | 344 | 3.0 | 10.0 | 0.00 | 0.00 | 0.00 | 48 | 1009.8 |
| 20260506123048 | 63 | 323 | 2.0 | 10.0 | 0.00 | 0.00 | 0.00 | 49 | 1009.7 |
| 20260506122648 | 63 | 355 | 2.0 | 9.0 | 0.00 | 0.00 | 0.00 | 49 | 1009.7 |
| 20260506122046 | 63 | 303 | 3.0 | 9.0 | 0.00 | 0.00 | 0.00 | 47 | 1009.7 |
| 20260506121547 | 64 | 317 | 1.0 | 6.0 | 0.00 | 0.00 | 0.00 | 46 | 1009.7 |
| 20260506121046 | 64 | 282 | 2.0 | 6.0 | 0.00 | 0.00 | 0.00 | 47 | 1009.6 |
| 20260506120546 | 64 | 310 | 3.0 | 6.0 | 0.00 | 0.00 | 0.00 | 45 | 1009.6 |
| 20260506120054 | 64 | 5 | 3.0 | 8.0 | 0.00 | 0.00 | 0.00 | 46 | 1009.6 |
| 20260506115545 | 64 | 354 | 3.0 | 8.0 | 0.00 | 0.00 | 0.00 | 46 | 1009.6 |
| 20260506115044 | 64 | 311 | 3.0 | 8.0 | 0.00 | 0.00 | 0.00 | 46 | 1009.5 |
| 20260506114550 | 64 | 337 | 4.0 | 10.0 | 0.00 | 0.00 | 0.00 | 45 | 1009.4 |
| 20260506114043 | 64 | 349 | 4.0 | 10.0 | 0.00 | 0.00 | 0.00 | 46 | 1009.4 |
| 20260506113542 | 63 | 336 | 4.0 | 11.0 | 0.00 | 0.00 | 0.00 | 48 | 1009.3 |
| 20260506113042 | 62 | 342 | 5.0 | 11.0 | 0.00 | 0.00 | 0.00 | 49 | 1009.4 |
| 20260506112541 | 61 | 353 | 2.0 | 7.0 | 0.00 | 0.00 | 0.00 | 49 | 1009.4 |
| 20260506112040 | 61 | 320 | 2.0 | 7.0 | 0.00 | 0.00 | 0.00 | 49 | 1009.4 |
| 20260506111543 | 61 | 332 | 0.0 | 2.0 | 0.00 | 0.00 | 0.00 | 51 | 1009.4 |
| 20260506111043 | 61 | 302 | 0.0 | 2.0 | 0.00 | 0.00 | 0.00 | 50 | 1009.4 |
| 20260506110539 | 61 | 300 | 0.0 | 2.0 | 0.00 | 0.00 | 0.00 | 50 | 1009.4 |
| 20260506110038 | 61 | 303 | 0.0 | 3.0 | 0.00 | 0.00 | 0.00 | 49 | 1009.3 |
| 20260506105542 | 61 | 326 | 0.0 | 4.0 | 0.00 | 0.00 | 0.00 | 49 | 1009.2 |
| 20260506105037 | 60 | 310 | 1.0 | 6.0 | 0.00 | 0.00 | 0.00 | 50 | 1009.2 |
| 20260506104541 | 60 | 336 | 2.0 | 6.0 | 0.00 | 0.00 | 0.00 | 52 | 1009.1 |
| 20260506104036 | 59 | 311 | 1.0 | 3.0 | 0.00 | 0.00 | 0.00 | 52 | 1009.1 |
| 20260506103535 | 59 | 20 | 0.0 | 2.0 | 0.00 | 0.00 | 0.00 | 54 | 1009.1 |
| 20260506103035 | 60 | 17 | 0.0 | 2.0 | 0.00 | 0.00 | 0.00 | 53 | 1009.1 |
| 20260506102535 | 60 | 308 | 0.0 | 2.0 | 0.00 | 0.00 | 0.00 | 52 | 1009.1 |
| 20260506102034 | 60 | 20 | 0.0 | 2.0 | 0.00 | 0.00 | 0.00 | 53 | 1009.0 |
| 20260506101537 | 61 | 56 | 0.0 | 2.0 | 0.00 | 0.00 | 0.00 | 52 | 1009.0 |
| 20260506101034 | 61 | 33 | 1.0 | 2.0 | 0.00 | 0.00 | 0.00 | 51 | 1009.0 |
| 20260506100533 | 61 | 283 | 0.0 | 2.0 | 0.00 | 0.00 | 0.00 | 49 | 1008.9 |
| 20260506100038 | 62 | 286 | 0.0 | 2.0 | 0.00 | 0.00 | 0.00 | 49 | 1008.9 |
| 20260506095533 | 62 | 342 | 0.0 | 2.0 | 0.00 | 0.00 | 0.00 | 48 | 1008.9 |
| 20260506095032 | 62 | 284 | 0.0 | 2.0 | 0.00 | 0.00 | 0.00 | 47 | 1009.0 |
| 20260506094533 | 63 | 295 | 0.0 | 2.0 | 0.00 | 0.00 | 0.00 | 48 | 1008.9 |
| 20260506094034 | 63 | 181 | 0.0 | 2.0 | 0.00 | 0.00 | 0.00 | 47 | 1008.9 |
| 20260506093534 | 63 | 199 | 0.0 | 3.0 | 0.00 | 0.00 | 0.00 | 47 | 1008.9 |
| 20260506093052 | 63 | 199 | 0.0 | 5.0 | 0.00 | 0.00 | 0.00 | 47 | 1008.8 |
| 20260506092532 | 63 | 185 | 2.0 | 5.0 | 0.00 | 0.00 | 0.00 | 47 | 1008.9 |
| 20260506092032 | 63 | 185 | 1.0 | 2.0 | 0.00 | 0.00 | 0.00 | 48 | 1008.9 |
| 20260506091533 | 63 | 302 | 0.0 | 4.0 | 0.00 | 0.00 | 0.00 | 47 | 1008.8 |
| 20260506091031 | 63 | 286 | 1.0 | 4.0 | 0.00 | 0.00 | 0.00 | 47 | 1008.9 |
| 20260506090529 | 63 | 288 | 1.0 | 6.0 | 0.00 | 0.00 | 0.00 | 48 | 1008.8 |
| 20260506090029 | 62 | 297 | 1.0 | 7.0 | 0.00 | 0.00 | 0.00 | 49 | 1008.8 |
| 20260506085529 | 61 | 282 | 1.0 | 4.0 | 0.00 | 0.00 | 0.00 | 50 | 1008.9 |
| 20260506085029 | 61 | 310 | 1.0 | 3.0 | 0.00 | 0.00 | 0.00 | 51 | 1008.8 |
| 20260506084530 | 60 | 239 | 0.0 | 3.0 | 0.00 | 0.00 | 0.00 | 52 | 1008.8 |
| 20260506084029 | 59 | 169 | 0.0 | 3.0 | 0.00 | 0.00 | 0.00 | 55 | 1008.8 |
| 20260506083529 | 59 | 59 | 0.0 | 2.0 | 0.00 | 0.00 | 0.00 | 55 | 1008.8 |
| 20260506083028 | 59 | 28 | 1.0 | 4.0 | 0.00 | 0.00 | 0.00 | 55 | 1008.8 |
| 20260506082531 | 59 | 16 | 0.0 | 4.0 | 0.00 | 0.00 | 0.00 | 55 | 1008.8 |
| 20260506082026 | 59 | 75 | 1.0 | 2.0 | 0.00 | 0.00 | 0.00 | 55 | 1008.7 |
| 20260506081526 | 59 | 23 | 0.0 | 3.0 | 0.00 | 0.00 | 0.00 | 54 | 1008.8 |
| 20260506081026 | 60 | 29 | 0.0 | 3.0 | 0.00 | 0.00 | 0.00 | 54 | 1008.7 |
| 20260506080525 | 60 | 47 | 0.0 | 2.0 | 0.00 | 0.00 | 0.00 | 54 | 1008.7 |
| 20260506073524 | 60 | 3 | 0.0 | 2.0 | 0.00 | 0.00 | 0.00 | 54 | 1008.5 |
| 20260506073020 | 61 | 11 | 1.0 | 2.0 | 0.00 | 0.00 | 0.00 | 54 | 1008.5 |
| 20260506072521 | 61 | 10 | 1.0 | 2.0 | 0.00 | 0.00 | 0.00 | 53 | 1008.5 |
| 20260506072020 | 61 | 11 | 1.0 | 2.0 | 0.00 | 0.00 | 0.00 | 53 | 1008.5 |
| 20260506071516 | 62 | 8 | 0.0 | 2.0 | 0.00 | 0.00 | 0.00 | 52 | 1008.5 |
| 20260506071014 | 62 | 25 | 1.0 | 2.0 | 0.00 | 0.00 | 0.00 | 51 | 1008.5 |
| 20260506070513 | 62 | 22 | 1.0 | 2.0 | 0.00 | 0.00 | 0.00 | 50 | 1008.5 |
| 20260506062509 | 65 | 342 | 0.0 | 3.0 | 0.00 | 0.00 | 0.00 | 45 | 1008.2 |
| 20260506062011 | 66 | 342 | 0.0 | 3.0 | 0.00 | 0.00 | 0.00 | 45 | 1008.2 |
| 20260506061510 | 66 | 21 | 1.0 | 3.0 | 0.00 | 0.00 | 0.00 | 46 | 1008.2 |
| 20260506061008 | 66 | 84 | 1.0 | 3.0 | 0.00 | 0.00 | 0.00 | 44 | 1008.2 |
| 20260506060508 | 67 | 169 | 0.0 | 1.0 | 0.00 | 0.00 | 0.00 | 44 | 1008.1 |